Thunder radar more information blitzortung!


avis per Pluja more information rain snow radar


Visita la nostra xarxa de llocs de meteo:

Template documentation
and downloads

And another site



Rain From: 15-11-2018 14:00 Until: 23:59 warning for: Rain Level: Orange info button

Pagina Historial Weather Underground text

Diari Resum January 9, 2018 Unitats:  Imperial    Mètric   Tant
« Previous Dia
SegĂźent Dia »
Diari Setmana Mensual Anual Personalitzada
  Maxima: Minima: Media:
Temperatura: TemperatureC °F 2.6 °F 9.8 °F
Punt de rosada: DewpointC °F -2.4 °F 1 °F
Humitat: Humidity % 48 % 55 %
Wind Speed: WindSpeedKMH mph 0.0 mph 6.5 mph
RĂ fegues de vent: WindSpeedGustKMH mph - -
Vent:- - SW
Pression baro: PressurehPa in 1011.7 in -
Precipitacions: 0.0 in    
Historical Graphs
 
 
Dades de taula per January 9, 2018
Temps Temperatura Punt de rosada Pression baro Vent Wind Speed RĂ fegues de vent Humitat Rainfall Rate (Hourly)
TemperatureC °F DewpointC °F PressurehPa in Calm     Humidity % HourlyPrecipMM in
00:03 4.9 °F 0.8 °F 1011.7 in West 9.3 mph 9.3 mph 75 % 0.0 in
00:04 4.9 °F 0.8 °F 1011.7 in West 5.6 mph 5.6 mph 75 % 0.0 in
00:05 5.0 °F 0.9 °F 1011.7 in WSW 4.7 mph 4.7 mph 75 % 0.0 in
00:25 3.3 °F -0.9 °F 1013.8 in WSW 4.8 mph 4.8 mph 74 % 0.0 in
00:35 3.0 °F -1.2 °F 1012.8 in WSW 3.2 mph 4.8 mph 74 % 0.0 in
00:45 3.1 °F -1.1 °F 1012.8 in WSW 4.8 mph 4.8 mph 74 % 0.0 in
00:55 3.2 °F -1.0 °F 1013.8 in WSW 1.6 mph 4.8 mph 74 % 0.0 in
01:15 2.6 °F -1.6 °F 1013.8 in WSW 3.2 mph 4.8 mph 74 % 0.0 in
01:25 2.7 °F -1.5 °F 1014.8 in WSW 1.6 mph 3.2 mph 74 % 0.0 in
01:45 2.9 °F -1.1 °F 1014.8 in WSW 1.6 mph 4.8 mph 75 % 0.0 in
01:55 2.7 °F -1.3 °F 1014.8 in Calm   1.6 mph 75 % 0.0 in
02:15 2.8 °F -1.2 °F 1015.8 in WSW 3.2 mph 4.8 mph 75 % 0.0 in
02:25 2.9 °F -1.1 °F 1015.8 in Calm   3.2 mph 75 % 0.0 in
02:45 2.9 °F -1.1 °F 1015.8 in Calm   3.2 mph 75 % 0.0 in
10:48 6.7 °F 0.8 °F 1017.8 in ENE 3.7 mph 3.7 mph 66 % 0.0 in
10:49 6.7 °F 0.8 °F 1017.8 in ENE 3.7 mph 3.7 mph 66 % 0.0 in
10:50 6.8 °F 0.9 °F 1017.8 in ENE 1.9 mph   66 % 0.0 in
10:51 6.8 °F 0.9 °F 1017.8 in NNW 1.9 mph   66 % 0.0 in
10:52 6.9 °F 1.2 °F 1017.8 in NW 3.7 mph 3.7 mph 67 % 0.0 in
10:53 7.0 °F 1.3 °F 1017.8 in NNW 3.7 mph 3.7 mph 67 % 0.0 in
10:54 7.1 °F 1.4 °F 1017.8 in NNW 1.9 mph 1.9 mph 67 % 0.0 in
10:55 7.2 °F 1.5 °F 1017.8 in West 3.5 mph   67 % 0.0 in
10:56 7.2 °F 1.5 °F 1017.8 in West 3.7 mph 3.7 mph 67 % 0.0 in
10:57 7.2 °F 1.5 °F 1017.8 in West 3.7 mph 3.7 mph 67 % 0.0 in
10:58 7.3 °F 1.6 °F 1017.8 in SW 3.7 mph 3.7 mph 67 % 0.0 in
10:59 7.4 °F 1.7 °F 1017.8 in SW 3.7 mph 3.7 mph 67 % 0.0 in
11:00 7.4 °F 1.7 °F 1017.8 in SW 3.7 mph 3.7 mph 67 % 0.0 in
11:01 7.6 °F 1.7 °F 1017.8 in SW 3.7 mph   66 % 0.0 in
11:02 7.7 °F 1.7 °F 1017.8 in SW 3.7 mph 3.7 mph 66 % 0.0 in
11:03 7.8 °F 1.8 °F 1017.8 in SW 3.7 mph 3.7 mph 66 % 0.0 in
11:04 7.8 °F 1.8 °F 1017.8 in WNW 3.7 mph   66 % 0.0 in
11:05 7.8 °F 1.8 °F 1017.8 in NNW 2.6 mph 2.6 mph 66 % 0.0 in
11:06 7.8 °F 1.6 °F 1017.8 in North 1.9 mph 2.3 mph 65 % 0.0 in
11:07 7.8 °F 1.6 °F 1017.8 in NNE 2.3 mph 2.3 mph 65 % 0.0 in
11:08 7.8 °F 1.6 °F 1017.8 in NNE 2.6 mph 2.6 mph 65 % 0.0 in
11:09 7.8 °F 1.6 °F 1017.8 in NNE 3.7 mph 3.7 mph 65 % 0.0 in
11:10 7.9 °F 1.7 °F 1017.8 in NNE 1.9 mph 1.9 mph 65 % 0.0 in
11:11 8.0 °F 1.8 °F 1017.8 in NNE 1.9 mph   65 % 0.0 in
11:12 8.1 °F 1.9 °F 1017.8 in East 3.7 mph 3.7 mph 65 % 0.0 in
11:13 8.2 °F 2.0 °F 1017.8 in East 3.7 mph   65 % 0.0 in
11:14 8.2 °F 2.0 °F 1017.8 in East 3.7 mph   65 % 0.0 in
11:16 8.4 °F 2.2 °F 1017.8 in ESE 1.9 mph   65 % 0.0 in
11:17 8.5 °F 2.3 °F 1017.8 in ESE 1.9 mph 1.9 mph 65 % 0.0 in
11:18 8.6 °F 2.4 °F 1017.8 in NE 2.6 mph 2.6 mph 65 % 0.0 in
11:20 8.4 °F 2.0 °F 1017.8 in ENE 4.2 mph 4.2 mph 64 % 0.0 in
11:21 8.2 °F 1.8 °F 1017.8 in NE 3.7 mph 4.2 mph 64 % 0.0 in
11:22 8.1 °F 1.7 °F 1017.8 in NE 3.7 mph 3.7 mph 64 % 0.0 in
11:23 8.1 °F 1.7 °F 1017.8 in ENE 3.7 mph 3.7 mph 64 % 0.0 in
11:24 8.1 °F 1.7 °F 1017.8 in NE 3.7 mph 3.7 mph 64 % 0.0 in
11:25 8.1 °F 1.7 °F 1017.8 in ENE 1.6 mph 4.8 mph 64 % 0.0 in
11:27 7.9 °F 1.3 °F 1017.8 in ENE 5.6 mph 5.6 mph 63 % 0.0 in
11:28 7.9 °F 1.3 °F 1017.8 in ENE 3.7 mph 3.7 mph 63 % 0.0 in
11:29 7.9 °F 1.5 °F 1017.8 in NE 5.3 mph 5.3 mph 64 % 0.0 in
11:30 7.9 °F 1.3 °F 1017.8 in NNE 5.6 mph 5.6 mph 63 % 0.0 in
11:31 7.9 °F 1.5 °F 1017.8 in NE 3.7 mph 3.7 mph 64 % 0.0 in
11:32 8.0 °F 1.6 °F 1017.8 in NNE 4.2 mph 4.2 mph 64 % 0.0 in
11:33 8.0 °F 1.6 °F 1017.8 in NNE 4.7 mph 4.7 mph 64 % 0.0 in
11:36 8.0 °F 1.4 °F 1017.8 in NE 5.6 mph 5.6 mph 63 % 0.0 in
11:37 8.1 °F 1.5 °F 1017.8 in NE 3.7 mph 3.7 mph 63 % 0.0 in
11:38 8.1 °F 1.5 °F 1017.8 in NE 3.7 mph 3.7 mph 63 % 0.0 in
11:39 8.3 °F 1.9 °F 1017.8 in NE 1.9 mph   64 % 0.0 in
11:44 8.4 °F 2.0 °F 1017.8 in NNW 3.7 mph 3.7 mph 64 % 0.0 in
11:45 8.4 °F 2.0 °F 1017.8 in NE 3.7 mph 3.7 mph 64 % 0.0 in
11:46 8.4 °F 2.0 °F 1017.8 in NE 3.7 mph 3.7 mph 64 % 0.0 in
11:50 8.4 °F 2.0 °F 1017.8 in NNE 5.6 mph 5.6 mph 64 % 0.0 in
11:53 8.7 °F 2.3 °F 1017.8 in NE 2.6 mph 3.2 mph 64 % 0.0 in
11:54 8.7 °F 2.3 °F 1017.8 in NE 5.6 mph 5.6 mph 64 % 0.0 in
11:55 8.8 °F 2.3 °F 1017.8 in NE 3.7 mph 3.7 mph 64 % 0.0 in
11:56 8.7 °F 2.1 °F 1017.8 in ENE 3.9 mph 3.9 mph 63 % 0.0 in
11:59 8.7 °F 2.1 °F 1017.8 in ENE 3.2 mph 3.2 mph 63 % 0.0 in
12:00 8.7 °F 2.1 °F 1017.8 in ENE 5.0 mph 5.0 mph 63 % 0.0 in
12:01 8.7 °F 2.1 °F 1017.8 in NNE 5.6 mph 5.6 mph 63 % 0.0 in
12:02 8.7 °F 1.8 °F 1017.8 in NE 5.6 mph 5.6 mph 62 % 0.0 in
12:03 8.7 °F 1.8 °F 1017.8 in NE 5.6 mph 5.6 mph 62 % 0.0 in
12:05 8.9 °F 2.2 °F 1017.8 in ENE 5.0 mph 5.0 mph 63 % 0.0 in
12:06 8.9 °F 2.2 °F 1017.8 in NNE 5.6 mph 5.6 mph 63 % 0.0 in
12:07 8.9 °F 2.2 °F 1017.8 in NNE 5.6 mph 5.6 mph 63 % 0.0 in
12:08 8.7 °F 1.8 °F 1017.8 in NNE 5.6 mph 5.6 mph 62 % 0.0 in
12:10 8.8 °F 1.9 °F 1017.8 in ENE 5.6 mph 5.6 mph 62 % 0.0 in
12:13 9.1 °F 2.2 °F 1017.8 in ESE 5.6 mph 5.6 mph 62 % 0.0 in
12:14 9.0 °F 1.9 °F 1017.8 in ENE 5.8 mph 5.8 mph 61 % 0.0 in
12:15 9.1 °F 2.2 °F 1017.8 in NE 3.2 mph 6.4 mph 62 % 0.0 in
12:16 9.1 °F 2.2 °F 1017.8 in East 5.6 mph 5.6 mph 62 % 0.0 in
12:17 9.2 °F 2.3 °F 1017.8 in East 2.3 mph 2.3 mph 62 % 0.0 in
12:18 9.2 °F 2.1 °F 1017.8 in ENE 6.9 mph 6.9 mph 61 % 0.0 in
12:20 9.1 °F 2.2 °F 1017.8 in NE 5.6 mph 5.6 mph 62 % 0.0 in
12:21 9.1 °F 1.9 °F 1017.8 in ESE 5.6 mph 5.6 mph 61 % 0.0 in
12:22 9.1 °F 1.9 °F 1017.8 in ENE 3.7 mph 3.7 mph 61 % 0.0 in
12:23 9.2 °F 2.1 °F 1017.8 in ENE 3.7 mph 3.7 mph 61 % 0.0 in
12:24 9.4 °F 2.5 °F 1017.8 in ESE 1.9 mph 2.3 mph 62 % 0.0 in
12:25 9.4 °F 2.5 °F 1017.8 in WSW 5.0 mph 5.0 mph 62 % 0.0 in
12:26 9.6 °F 2.7 °F 1017.8 in WNW 5.6 mph 5.6 mph 62 % 0.0 in
12:27 9.6 °F 2.9 °F 1017.8 in NNW 3.7 mph 3.7 mph 63 % 0.0 in
12:28 9.7 °F 3.0 °F 1017.8 in West 4.2 mph 4.2 mph 63 % 0.0 in
12:29 9.9 °F 2.9 °F 1017.8 in ENE 3.7 mph 3.7 mph 62 % 0.0 in
12:30 9.9 °F 2.9 °F 1017.8 in NNW 4.2 mph 4.2 mph 62 % 0.0 in
12:33 10.3 °F 3.1 °F 1017.8 in WSW 8.7 mph 8.7 mph 61 % 0.0 in
12:35 10.3 °F 3.1 °F 1017.8 in South 9.3 mph 9.3 mph 61 % 0.0 in
12:36 10.4 °F 3.2 °F 1017.8 in South 5.6 mph 5.6 mph 61 % 0.0 in
12:37 10.4 °F 3.2 °F 1017.8 in WNW 4.7 mph 4.7 mph 61 % 0.0 in
12:38 10.5 °F 3.3 °F 1017.8 in WSW 6.4 mph 6.4 mph 61 % 0.0 in
12:40 10.7 °F 3.2 °F 1017.8 in WNW 2.3 mph 2.3 mph 60 % 0.0 in
12:41 10.7 °F 3.2 °F 1017.8 in NW 3.7 mph 3.7 mph 60 % 0.0 in
12:43 10.6 °F 3.4 °F 1017.8 in WNW 7.4 mph 7.4 mph 61 % 0.0 in
12:44 10.6 °F 3.2 °F 1017.8 in WNW 7.4 mph 7.4 mph 60 % 0.0 in
12:45 10.8 °F 3.3 °F 1017.8 in SSW 3.7 mph 3.7 mph 60 % 0.0 in
12:46 10.8 °F 3.3 °F 1017.8 in WNW 3.7 mph 3.7 mph 60 % 0.0 in
12:47 10.9 °F 3.4 °F 1017.8 in WSW 8.7 mph 8.7 mph 60 % 0.0 in
12:48 10.9 °F 3.4 °F 1017.8 in WNW 9.3 mph 9.3 mph 60 % 0.0 in
12:49 10.9 °F 3.4 °F 1017.8 in WSW 5.8 mph 5.8 mph 60 % 0.0 in
12:52 10.9 °F 3.2 °F 1016.8 in West 13.0 mph 13.0 mph 59 % 0.0 in
12:53 10.8 °F 2.8 °F 1016.8 in West 13.0 mph 13.0 mph 58 % 0.0 in
12:54 10.9 °F 2.9 °F 1016.8 in West 7.4 mph 7.4 mph 58 % 0.0 in
12:55 10.9 °F 2.9 °F 1016.8 in WNW 13.0 mph 13.0 mph 58 % 0.0 in
12:56 10.9 °F 2.9 °F 1016.8 in WSW 13.0 mph 13.0 mph 58 % 0.0 in
12:57 10.9 °F 2.7 °F 1016.8 in WSW 11.1 mph 11.1 mph 57 % 0.0 in
12:58 10.9 °F 2.7 °F 1016.8 in WSW 5.6 mph 5.6 mph 57 % 0.0 in
13:00 11.0 °F 2.8 °F 1016.8 in WNW 7.4 mph 7.4 mph 57 % 0.0 in
13:01 10.9 °F 2.7 °F 1016.8 in NNW 7.4 mph 7.4 mph 57 % 0.0 in
13:02 11.0 °F 2.8 °F 1016.8 in NW 7.4 mph 7.4 mph 57 % 0.0 in
13:05 11.1 °F 2.9 °F 1015.8 in WNW 11.4 mph 11.4 mph 57 % 0.0 in
13:06 11.1 °F 2.7 °F 1015.8 in West 11.1 mph 11.1 mph 56 % 0.0 in
13:07 11.1 °F 2.7 °F 1015.8 in WSW 9.3 mph 9.3 mph 56 % 0.0 in
13:08 11.1 °F 2.7 °F 1015.8 in WNW 7.4 mph 7.4 mph 56 % 0.0 in
13:10 11.3 °F 2.6 °F 1015.8 in WSW 5.6 mph 5.6 mph 55 % 0.0 in
13:12 11.4 °F 2.9 °F 1015.8 in SW 7.9 mph 7.9 mph 56 % 0.0 in
13:13 11.4 °F 2.9 °F 1015.8 in WNW 9.3 mph 9.3 mph 56 % 0.0 in
13:14 11.4 °F 2.9 °F 1015.8 in WSW 9.3 mph 9.3 mph 56 % 0.0 in
13:16 11.4 °F 2.7 °F 1015.8 in North 5.6 mph 5.6 mph 55 % 0.0 in
13:17 11.4 °F 2.7 °F 1015.8 in WSW 3.7 mph 3.7 mph 55 % 0.0 in
13:19 11.7 °F 2.9 °F 1015.8 in West 2.3 mph 2.3 mph 55 % 0.0 in
13:20 11.7 °F 2.9 °F 1015.8 in SW 6.1 mph 6.1 mph 55 % 0.0 in
13:21 11.8 °F 3.1 °F 1015.8 in WSW 5.3 mph 5.3 mph 55 % 0.0 in
13:22 11.8 °F 3.1 °F 1015.8 in WSW 5.8 mph 5.8 mph 55 % 0.0 in
13:24 11.8 °F 2.8 °F 1015.8 in SW 9.3 mph 9.3 mph 54 % 0.0 in
13:25 11.8 °F 2.8 °F 1015.8 in WSW 7.4 mph 7.4 mph 54 % 0.0 in
13:26 11.8 °F 3.1 °F 1015.8 in SSW 7.4 mph 7.4 mph 55 % 0.0 in
13:27 11.9 °F 2.9 °F 1015.8 in WSW 5.6 mph 5.6 mph 54 % 0.0 in
13:28 11.9 °F 2.9 °F 1015.8 in NW 7.4 mph 7.4 mph 54 % 0.0 in
13:29 11.9 °F 2.9 °F 1015.8 in NE 3.7 mph 3.7 mph 54 % 0.0 in
13:30 12.0 °F 2.9 °F 1015.8 in NW 9.3 mph 9.3 mph 54 % 0.0 in
13:31 12.0 °F 2.9 °F 1015.8 in WSW 6.4 mph 6.4 mph 54 % 0.0 in
13:32 12.0 °F 2.9 °F 1015.8 in WNW 7.4 mph 7.4 mph 54 % 0.0 in
13:33 12.0 °F 2.9 °F 1015.8 in West 7.4 mph 7.4 mph 54 % 0.0 in
13:34 12.0 °F 2.9 °F 1015.8 in SW 6.1 mph 6.1 mph 54 % 0.0 in
13:38 12.0 °F 2.9 °F 1015.8 in WNW 11.1 mph 11.1 mph 54 % 0.0 in
13:40 11.8 °F 2.5 °F 1015.8 in WSW 11.1 mph 11.1 mph 53 % 0.0 in
13:42 11.8 °F 2.5 °F 1015.8 in West 9.7 mph 9.7 mph 53 % 0.0 in
13:43 11.8 °F 2.5 °F 1015.8 in NW 9.3 mph 9.3 mph 53 % 0.0 in
13:44 11.8 °F 2.5 °F 1015.8 in WNW 5.6 mph 5.6 mph 53 % 0.0 in
13:46 11.7 °F 2.4 °F 1015.8 in West 10.3 mph 10.3 mph 53 % 0.0 in
13:48 11.7 °F 2.2 °F 1015.8 in NNE 7.4 mph 7.4 mph 52 % 0.0 in
13:49 11.7 °F 2.2 °F 1015.8 in West 7.4 mph 7.4 mph 52 % 0.0 in
13:50 11.7 °F 2.2 °F 1015.8 in WSW 7.4 mph 7.4 mph 52 % 0.0 in
13:51 11.7 °F 2.2 °F 1015.8 in SW 5.6 mph 5.6 mph 52 % 0.0 in
13:52 11.7 °F 2.2 °F 1015.8 in West 5.6 mph 5.6 mph 52 % 0.0 in
13:53 11.8 °F 2.3 °F 1015.8 in NNW 3.9 mph 3.9 mph 52 % 0.0 in
13:55 11.7 °F 2.2 °F 1015.8 in WNW 7.4 mph 7.4 mph 52 % 0.0 in
13:56 11.7 °F 2.2 °F 1015.8 in WSW 5.6 mph 5.6 mph 52 % 0.0 in
13:57 11.8 °F 2.3 °F 1015.8 in WSW 5.6 mph 5.6 mph 52 % 0.0 in
13:59 11.8 °F 2.3 °F 1015.8 in WSW 7.4 mph 7.4 mph 52 % 0.0 in
14:00 11.8 °F 2.3 °F 1015.8 in West 3.2 mph 9.7 mph 52 % 0.0 in
14:02 12.0 °F 2.4 °F 1015.8 in West 9.3 mph 9.3 mph 52 % 0.0 in
14:03 12.0 °F 2.4 °F 1015.8 in West 9.3 mph 9.3 mph 52 % 0.0 in
14:06 12.1 °F 2.6 °F 1015.8 in West 4.2 mph 4.2 mph 52 % 0.0 in
14:07 12.1 °F 2.6 °F 1015.8 in WSW 7.9 mph 7.9 mph 52 % 0.0 in
14:08 12.1 °F 2.6 °F 1015.8 in SSW 6.4 mph 6.4 mph 52 % 0.0 in
14:10 12.1 °F 2.6 °F 1015.8 in WSW 9.3 mph 9.3 mph 52 % 0.0 in
14:14 12.2 °F 2.6 °F 1015.8 in West 7.4 mph 7.4 mph 52 % 0.0 in
14:15 12.2 °F 2.6 °F 1015.8 in NNW 7.4 mph 7.4 mph 52 % 0.0 in
14:16 12.1 °F 2.6 °F 1015.8 in WSW 8.7 mph 8.7 mph 52 % 0.0 in
14:17 12.1 °F 2.6 °F 1015.8 in West 9.3 mph 9.3 mph 52 % 0.0 in
14:18 12.1 °F 2.6 °F 1015.8 in SW 7.4 mph 7.4 mph 52 % 0.0 in
14:19 12.2 °F 2.3 °F 1015.8 in SSW 7.4 mph 7.4 mph 51 % 0.0 in
14:21 12.2 °F 2.3 °F 1015.8 in NW 7.4 mph 7.4 mph 51 % 0.0 in
14:24 12.2 °F 2.3 °F 1015.8 in NW 5.6 mph 5.6 mph 51 % 0.0 in
14:25 12.2 °F 2.3 °F 1015.8 in West 5.6 mph 5.6 mph 51 % 0.0 in
14:27 12.2 °F 2.3 °F 1015.8 in South 1.9 mph 1.9 mph 51 % 0.0 in
14:28 12.2 °F 2.3 °F 1015.8 in SSE 6.1 mph 6.1 mph 51 % 0.0 in
14:30 12.2 °F 2.3 °F 1015.8 in WSW 5.8 mph 5.8 mph 51 % 0.0 in
14:31 12.2 °F 2.3 °F 1015.8 in WSW 5.6 mph 5.6 mph 51 % 0.0 in
14:33 12.1 °F 2.3 °F 1015.8 in West 6.9 mph 6.9 mph 51 % 0.0 in
14:34 12.1 °F 2.3 °F 1015.8 in WSW 9.3 mph 9.3 mph 51 % 0.0 in
14:35 12.1 °F 2.3 °F 1015.8 in WSW 9.3 mph 9.3 mph 51 % 0.0 in
14:37 12.1 °F 2.3 °F 1015.8 in West 5.0 mph 5.0 mph 51 % 0.0 in
14:39 12.0 °F 2.2 °F 1015.8 in West 7.4 mph 7.4 mph 51 % 0.0 in
14:40 11.9 °F 2.1 °F 1015.8 in WSW 7.4 mph 7.4 mph 51 % 0.0 in
14:41 11.9 °F 2.1 °F 1015.8 in WSW 7.4 mph 7.4 mph 51 % 0.0 in
14:42 11.9 °F 2.1 °F 1015.8 in WSW 7.4 mph 7.4 mph 51 % 0.0 in
14:44 11.9 °F 2.1 °F 1015.8 in NE 5.6 mph 5.6 mph 51 % 0.0 in
14:45 11.9 °F 2.1 °F 1015.8 in SSW 5.6 mph 5.6 mph 51 % 0.0 in
14:46 11.9 °F 2.1 °F 1015.8 in NW 5.6 mph 5.6 mph 51 % 0.0 in
14:47 11.8 °F 2.0 °F 1015.8 in WSW 5.6 mph 5.6 mph 51 % 0.0 in
14:48 11.8 °F 2.0 °F 1015.8 in WNW 3.7 mph 3.7 mph 51 % 0.0 in
14:49 11.8 °F 2.0 °F 1015.8 in NW 4.7 mph 4.7 mph 51 % 0.0 in
14:50 11.8 °F 2.0 °F 1015.8 in WSW 5.6 mph 5.6 mph 51 % 0.0 in
14:52 11.8 °F 2.0 °F 1015.8 in West 5.6 mph 5.6 mph 51 % 0.0 in
14:53 11.8 °F 2.0 °F 1015.8 in WNW 5.6 mph 5.6 mph 51 % 0.0 in
14:54 11.8 °F 2.0 °F 1015.8 in WSW 9.0 mph 9.0 mph 51 % 0.0 in
14:55 11.8 °F 2.0 °F 1015.8 in NNW 6.4 mph 6.4 mph 51 % 0.0 in
14:56 11.8 °F 2.0 °F 1015.8 in NNW 7.4 mph 7.4 mph 51 % 0.0 in
14:58 11.9 °F 2.1 °F 1015.8 in WNW 5.0 mph 5.0 mph 51 % 0.0 in
14:59 11.9 °F 2.1 °F 1015.8 in WNW 3.7 mph 3.9 mph 51 % 0.0 in
15:00 11.9 °F 2.1 °F 1015.8 in WNW 5.6 mph 5.6 mph 51 % 0.0 in
15:03 11.9 °F 2.1 °F 1015.8 in West 9.3 mph 9.3 mph 51 % 0.0 in
15:05 12.0 °F 2.2 °F 1015.8 in West 3.2 mph 9.7 mph 51 % 0.0 in
15:06 12.1 °F 2.3 °F 1015.8 in SW 11.1 mph 11.1 mph 51 % 0.0 in
15:07 12.1 °F 2.3 °F 1015.8 in WNW 11.1 mph 11.1 mph 51 % 0.0 in
15:08 12.0 °F 1.9 °F 1015.8 in WSW 11.1 mph 11.1 mph 50 % 0.0 in
15:09 12.0 °F 1.9 °F 1015.8 in WNW 11.1 mph 11.1 mph 50 % 0.0 in
15:10 12.0 °F 1.9 °F 1015.8 in West 9.3 mph 9.3 mph 50 % 0.0 in
15:11 12.0 °F 1.9 °F 1015.8 in NW 7.4 mph 7.4 mph 50 % 0.0 in
15:12 11.9 °F 1.8 °F 1015.8 in West 5.6 mph 5.6 mph 50 % 0.0 in
15:13 12.0 °F 1.9 °F 1015.8 in WNW 5.6 mph 5.6 mph 50 % 0.0 in
15:14 11.9 °F 1.8 °F 1015.8 in SSW 5.6 mph 5.6 mph 50 % 0.0 in
15:16 12.0 °F 1.9 °F 1015.8 in WSW 3.7 mph 3.7 mph 50 % 0.0 in
15:17 12.0 °F 2.2 °F 1015.8 in NNW 5.8 mph 5.8 mph 51 % 0.0 in
15:18 12.0 °F 2.2 °F 1015.8 in WNW 5.6 mph 5.6 mph 51 % 0.0 in
15:20 11.9 °F 1.8 °F 1015.8 in NW 3.9 mph 3.9 mph 50 % 0.0 in
15:21 11.9 °F 1.8 °F 1015.8 in West 5.8 mph 5.8 mph 50 % 0.0 in
15:23 11.8 °F 1.7 °F 1015.8 in WSW 5.6 mph 5.6 mph 50 % 0.0 in
15:25 11.8 °F 1.7 °F 1015.8 in West 9.3 mph 9.3 mph 50 % 0.0 in
15:26 11.8 °F 1.7 °F 1015.8 in West 9.3 mph 9.3 mph 50 % 0.0 in
15:27 11.9 °F 1.8 °F 1015.8 in West 5.6 mph 5.6 mph 50 % 0.0 in
15:28 11.9 °F 1.8 °F 1015.8 in West 7.4 mph 7.4 mph 50 % 0.0 in
15:29 11.8 °F 1.7 °F 1015.8 in WSW 5.6 mph 5.6 mph 50 % 0.0 in
15:30 11.8 °F 1.7 °F 1015.8 in WNW 5.8 mph 5.8 mph 50 % 0.0 in
15:33 11.7 °F 1.6 °F 1015.8 in WNW 5.6 mph 5.6 mph 50 % 0.0 in
15:36 11.6 °F 1.5 °F 1015.8 in West 11.4 mph 11.4 mph 50 % 0.0 in
15:38 11.6 °F 1.5 °F 1015.8 in NW 5.6 mph 5.6 mph 50 % 0.0 in
15:39 11.6 °F 1.5 °F 1015.8 in West 9.0 mph 9.0 mph 50 % 0.0 in
15:40 11.6 °F 1.5 °F 1015.8 in WNW 9.3 mph 9.3 mph 50 % 0.0 in
15:42 11.5 °F 1.4 °F 1015.8 in SW 7.4 mph 7.4 mph 50 % 0.0 in
15:43 11.5 °F 1.4 °F 1015.8 in West 5.6 mph 6.1 mph 50 % 0.0 in
15:45 11.5 °F 1.4 °F 1015.8 in West 7.4 mph 7.4 mph 50 % 0.0 in
15:47 11.5 °F 1.4 °F 1015.8 in WNW 3.7 mph 3.9 mph 50 % 0.0 in
15:48 11.5 °F 1.4 °F 1015.8 in West 3.9 mph 3.9 mph 50 % 0.0 in
15:49 11.5 °F 1.4 °F 1015.8 in WNW 5.6 mph 5.6 mph 50 % 0.0 in
15:50 11.5 °F 1.4 °F 1014.8 in WNW 5.6 mph 5.6 mph 50 % 0.0 in
15:51 11.4 °F 1.3 °F 1014.8 in NW 6.9 mph 6.9 mph 50 % 0.0 in
15:52 11.4 °F 1.3 °F 1014.8 in NNE 9.3 mph 9.3 mph 50 % 0.0 in
15:53 11.4 °F 1.3 °F 1014.8 in West 7.4 mph 7.4 mph 50 % 0.0 in
15:54 11.4 °F 1.3 °F 1014.8 in West 9.5 mph 9.5 mph 50 % 0.0 in
15:55 11.4 °F 1.3 °F 1014.8 in WNW 9.3 mph 9.3 mph 50 % 0.0 in
15:56 11.4 °F 1.3 °F 1014.8 in SW 9.3 mph 9.3 mph 50 % 0.0 in
15:58 11.3 °F 0.9 °F 1014.8 in WNW 9.3 mph 9.3 mph 49 % 0.0 in
16:00 11.3 °F 0.9 °F 1014.8 in SW 5.6 mph 5.6 mph 49 % 0.0 in
16:01 11.3 °F 0.9 °F 1014.8 in NW 6.1 mph 6.1 mph 49 % 0.0 in
16:02 11.3 °F 0.9 °F 1014.8 in NNW 10.3 mph 10.3 mph 49 % 0.0 in
16:03 11.2 °F 0.9 °F 1014.8 in West 11.1 mph 11.1 mph 49 % 0.0 in
16:04 11.2 °F 0.9 °F 1014.8 in West 9.3 mph 9.3 mph 49 % 0.0 in
16:05 11.2 °F 0.9 °F 1015.8 in WNW 7.4 mph 7.4 mph 49 % 0.0 in
16:06 11.2 °F 0.9 °F 1015.8 in NW 5.6 mph 5.6 mph 49 % 0.0 in
16:07 11.2 °F 0.9 °F 1015.8 in WSW 5.6 mph 5.6 mph 49 % 0.0 in
16:08 11.2 °F 0.9 °F 1015.8 in WNW 9.3 mph 9.3 mph 49 % 0.0 in
16:12 11.3 °F 0.7 °F 1015.8 in West 11.1 mph 11.1 mph 48 % 0.0 in
16:13 11.3 °F 0.7 °F 1015.8 in ENE 11.1 mph 11.1 mph 48 % 0.0 in
16:15 11.3 °F 0.7 °F 1015.8 in NW 9.3 mph 9.3 mph 48 % 0.0 in
16:16 11.3 °F 0.7 °F 1015.8 in NW 9.3 mph 9.3 mph 48 % 0.0 in
16:17 11.3 °F 0.7 °F 1015.8 in WNW 7.4 mph 7.4 mph 48 % 0.0 in
16:18 11.3 °F 0.7 °F 1015.8 in West 11.1 mph 11.1 mph 48 % 0.0 in
16:19 11.3 °F 0.7 °F 1015.8 in West 11.1 mph 11.1 mph 48 % 0.0 in
16:20 11.2 °F 0.6 °F 1015.8 in WNW 9.3 mph 9.3 mph 48 % 0.0 in
16:21 11.2 °F 0.6 °F 1015.8 in West 9.3 mph 9.3 mph 48 % 0.0 in
16:22 11.2 °F 0.6 °F 1015.8 in WNW 8.7 mph 8.7 mph 48 % 0.0 in
16:23 11.2 °F 0.6 °F 1015.8 in WNW 9.3 mph 9.3 mph 48 % 0.0 in
16:25 11.1 °F 0.5 °F 1015.8 in WSW 5.6 mph 5.6 mph 48 % 0.0 in
16:26 11.1 °F 0.5 °F 1015.8 in WSW 5.6 mph 5.6 mph 48 % 0.0 in
16:27 11.0 °F 0.4 °F 1015.8 in West 7.4 mph 7.4 mph 48 % 0.0 in
16:28 11.0 °F 0.4 °F 1015.8 in West 11.1 mph 11.1 mph 48 % 0.0 in
16:29 11.0 °F 0.4 °F 1015.8 in WNW 11.1 mph 11.1 mph 48 % 0.0 in
16:30 11.0 °F 0.4 °F 1015.8 in West 5.6 mph 5.6 mph 48 % 0.0 in
16:31 10.9 °F 0.3 °F 1015.8 in WSW 9.3 mph 9.3 mph 48 % 0.0 in
16:34 10.8 °F 0.2 °F 1015.8 in WSW 9.3 mph 9.3 mph 48 % 0.0 in
16:35 10.8 °F 0.2 °F 1015.8 in WSW 9.5 mph 9.5 mph 48 % 0.0 in
16:36 10.7 °F 0.1 °F 1015.8 in West 14.8 mph 14.8 mph 48 % 0.0 in
16:37 10.7 °F 0.1 °F 1015.8 in WSW 9.3 mph 9.3 mph 48 % 0.0 in
16:38 10.7 °F 0.1 °F 1015.8 in WSW 9.3 mph 9.3 mph 48 % 0.0 in
16:39 10.6 °F 0.1 °F 1015.8 in WSW 5.6 mph 5.6 mph 48 % 0.0 in
16:40 10.6 °F 0.1 °F 1015.8 in WNW 7.4 mph 7.4 mph 48 % 0.0 in
16:41 10.6 °F 0.1 °F 1015.8 in WNW 7.4 mph 7.4 mph 48 % 0.0 in
16:43 10.5 °F -0.1 °F 1015.8 in West 7.4 mph 7.4 mph 48 % 0.0 in
16:44 10.5 °F -0.1 °F 1015.8 in NW 5.6 mph 5.6 mph 48 % 0.0 in
16:45 10.4 °F -0.2 °F 1015.8 in SW 5.3 mph 5.3 mph 48 % 0.0 in
16:46 10.4 °F -0.2 °F 1015.8 in SSW 5.6 mph 5.6 mph 48 % 0.0 in
16:47 10.4 °F -0.2 °F 1015.8 in West 5.6 mph 5.6 mph 48 % 0.0 in
16:49 10.3 °F -0.2 °F 1015.8 in West 7.4 mph 7.4 mph 48 % 0.0 in
16:50 10.3 °F -0.2 °F 1015.8 in WNW 7.4 mph 7.4 mph 48 % 0.0 in
16:51 10.3 °F -0.2 °F 1015.8 in West 5.6 mph 5.6 mph 48 % 0.0 in
16:54 10.2 °F -0.3 °F 1015.8 in WNW 6.4 mph 6.4 mph 48 % 0.0 in
16:55 10.2 °F -0.3 °F 1015.8 in WSW 7.4 mph 7.4 mph 48 % 0.0 in
16:56 10.2 °F -0.3 °F 1015.8 in South 7.4 mph 7.4 mph 48 % 0.0 in
16:57 10.1 °F -0.4 °F 1015.8 in West 7.4 mph 7.4 mph 48 % 0.0 in
16:58 10.1 °F -0.4 °F 1015.8 in WSW 9.3 mph 9.3 mph 48 % 0.0 in
16:59 10.1 °F -0.4 °F 1015.8 in WSW 9.3 mph 9.3 mph 48 % 0.0 in
17:00 10.0 °F -0.5 °F 1015.8 in West 7.4 mph 7.4 mph 48 % 0.0 in
17:03 10.0 °F -0.5 °F 1015.8 in WSW 11.1 mph 11.1 mph 48 % 0.0 in
17:05 9.9 °F -0.6 °F 1015.8 in West 9.3 mph 9.3 mph 48 % 0.0 in
17:06 9.9 °F -0.6 °F 1015.8 in West 7.4 mph 7.4 mph 48 % 0.0 in
17:07 9.9 °F -0.6 °F 1015.8 in West 9.3 mph 9.3 mph 48 % 0.0 in
17:08 9.9 °F -0.6 °F 1015.8 in WSW 10.3 mph 10.3 mph 48 % 0.0 in
17:09 9.9 °F -0.6 °F 1015.8 in WNW 11.1 mph 11.1 mph 48 % 0.0 in
17:10 9.9 °F -0.6 °F 1015.8 in West 8.0 mph 11.3 mph 48 % 0.0 in
17:11 9.8 °F -0.7 °F 1015.8 in WSW 7.4 mph 7.4 mph 48 % 0.0 in
17:12 9.8 °F -0.7 °F 1015.8 in WSW 7.4 mph 7.4 mph 48 % 0.0 in
17:13 9.8 °F -0.7 °F 1015.8 in WSW 11.1 mph 11.1 mph 48 % 0.0 in
17:15 9.8 °F -0.7 °F 1015.8 in WSW 9.3 mph 9.3 mph 48 % 0.0 in
17:17 9.7 °F -0.8 °F 1015.8 in WNW 9.3 mph 9.3 mph 48 % 0.0 in
17:18 9.7 °F -0.8 °F 1015.8 in WSW 9.3 mph 9.3 mph 48 % 0.0 in
17:20 9.7 °F -0.8 °F 1015.8 in WSW 9.3 mph 9.3 mph 48 % 0.0 in
17:23 9.6 °F -0.9 °F 1015.8 in WSW 7.4 mph 7.4 mph 48 % 0.0 in
17:25 9.6 °F -0.9 °F 1015.8 in WNW 7.4 mph 7.4 mph 48 % 0.0 in
17:28 9.5 °F -1.0 °F 1015.8 in West 11.1 mph 11.1 mph 48 % 0.0 in
17:30 9.4 °F -1.1 °F 1015.8 in WSW 9.3 mph 9.3 mph 48 % 0.0 in
17:32 9.4 °F -1.1 °F 1015.8 in SW 13.0 mph 13.0 mph 48 % 0.0 in
17:34 9.3 °F -1.2 °F 1015.8 in WSW 13.0 mph 13.0 mph 48 % 0.0 in
17:35 9.3 °F -1.2 °F 1015.8 in WSW 9.3 mph 9.3 mph 48 % 0.0 in
17:36 9.3 °F -1.2 °F 1015.8 in WNW 10.3 mph 10.3 mph 48 % 0.0 in
17:37 9.3 °F -1.2 °F 1015.8 in West 13.0 mph 13.0 mph 48 % 0.0 in
17:39 9.2 °F -1.3 °F 1015.8 in WNW 9.3 mph 9.3 mph 48 % 0.0 in
17:42 9.2 °F -1.3 °F 1015.8 in WSW 9.3 mph 9.3 mph 48 % 0.0 in
17:43 9.1 °F -1.3 °F 1015.8 in West 7.4 mph 7.4 mph 48 % 0.0 in
17:46 9.1 °F -1.3 °F 1015.8 in West 6.1 mph 6.1 mph 48 % 0.0 in
17:47 9.1 °F -1.3 °F 1015.8 in WSW 6.1 mph 6.1 mph 48 % 0.0 in
17:49 9.0 °F -1.4 °F 1015.8 in WSW 7.4 mph 7.4 mph 48 % 0.0 in
17:51 9.0 °F -1.4 °F 1015.8 in West 7.4 mph 7.4 mph 48 % 0.0 in
17:52 9.0 °F -1.4 °F 1015.8 in West 9.3 mph 9.3 mph 48 % 0.0 in
17:53 9.0 °F -1.4 °F 1015.8 in SW 9.3 mph 9.3 mph 48 % 0.0 in
17:54 8.9 °F -1.6 °F 1015.8 in WNW 7.4 mph 7.4 mph 48 % 0.0 in
17:55 8.9 °F -1.5 °F 1015.8 in West 4.8 mph 9.7 mph 48 % 0.0 in
17:56 8.9 °F -1.6 °F 1015.8 in WSW 9.3 mph 9.3 mph 48 % 0.0 in
17:58 8.9 °F -1.6 °F 1015.8 in WSW 7.4 mph 7.4 mph 48 % 0.0 in
17:59 8.9 °F -1.6 °F 1015.8 in WSW 9.3 mph 9.3 mph 48 % 0.0 in
18:00 8.9 °F -1.6 °F 1015.8 in WSW 4.8 mph 9.7 mph 48 % 0.0 in
18:05 8.7 °F -1.7 °F 1014.8 in West 5.8 mph 5.8 mph 48 % 0.0 in
18:06 8.7 °F -1.7 °F 1014.8 in West 11.1 mph 11.1 mph 48 % 0.0 in
18:07 8.7 °F -1.7 °F 1014.8 in West 11.1 mph 11.1 mph 48 % 0.0 in
18:08 8.7 °F -1.7 °F 1014.8 in WSW 13.0 mph 13.0 mph 48 % 0.0 in
18:09 8.7 °F -1.7 °F 1014.8 in West 13.0 mph 13.0 mph 48 % 0.0 in
18:11 8.7 °F -1.4 °F 1014.8 in WSW 5.6 mph 6.4 mph 49 % 0.0 in
18:13 8.6 °F -1.5 °F 1014.8 in West 9.3 mph 9.3 mph 49 % 0.0 in
18:14 8.6 °F -1.8 °F 1014.8 in West 9.3 mph 9.3 mph 48 % 0.0 in
18:15 8.6 °F -1.5 °F 1014.8 in WSW 9.3 mph 9.3 mph 49 % 0.0 in
18:16 8.6 °F -1.5 °F 1014.8 in WSW 9.3 mph 9.3 mph 49 % 0.0 in
18:20 8.6 °F -1.5 °F 1015.8 in WSW 9.3 mph 9.3 mph 49 % 0.0 in
18:22 8.6 °F -1.5 °F 1015.8 in WSW 9.3 mph 9.3 mph 49 % 0.0 in
18:27 8.6 °F -1.5 °F 1015.8 in WSW 11.1 mph 11.1 mph 49 % 0.0 in
18:49 8.5 °F -1.6 °F 1014.8 in WSW 3.9 mph 3.9 mph 49 % 0.0 in
18:50 8.5 °F -1.6 °F 1014.8 in WSW 3.2 mph 9.7 mph 49 % 0.0 in
18:52 8.4 °F -1.7 °F 1015.8 in SSW 16.7 mph 16.7 mph 49 % 0.0 in
18:53 8.4 °F -1.7 °F 1015.8 in WSW 5.6 mph 5.6 mph 49 % 0.0 in
18:54 8.4 °F -1.7 °F 1015.8 in WSW 3.7 mph 3.7 mph 49 % 0.0 in
18:59 8.3 °F -1.8 °F 1015.8 in WSW 5.6 mph 5.6 mph 49 % 0.0 in
19:07 8.0 °F -1.8 °F 1014.8 in WSW 3.9 mph 3.9 mph 50 % 0.0 in
19:09 8.0 °F -1.8 °F 1014.8 in SW 5.6 mph 5.6 mph 50 % 0.0 in
19:13 8.0 °F -1.8 °F 1014.8 in WSW 3.9 mph 3.9 mph 50 % 0.0 in
19:19 7.9 °F -1.9 °F 1014.8 in WSW 3.7 mph 3.7 mph 50 % 0.0 in
19:24 7.8 °F -2.0 °F 1015.8 in WSW 5.6 mph 5.6 mph 50 % 0.0 in
19:25 7.8 °F -2.0 °F 1015.8 in West 5.6 mph 5.6 mph 50 % 0.0 in
19:28 7.8 °F -2.0 °F 1015.8 in West 5.6 mph 5.6 mph 50 % 0.0 in
19:32 7.8 °F -2.0 °F 1015.8 in West 4.7 mph 4.7 mph 50 % 0.0 in
19:34 7.8 °F -2.0 °F 1015.8 in West 5.6 mph 5.6 mph 50 % 0.0 in
19:35 7.7 °F -2.1 °F 1015.8 in West 4.7 mph 4.7 mph 50 % 0.0 in
19:36 7.7 °F -2.1 °F 1015.8 in WSW 5.6 mph 5.6 mph 50 % 0.0 in
19:37 7.7 °F -2.1 °F 1015.8 in WSW 5.6 mph 5.6 mph 50 % 0.0 in
19:40 7.7 °F -2.1 °F 1015.8 in WSW 5.6 mph 5.6 mph 50 % 0.0 in
19:43 7.7 °F -2.1 °F 1015.8 in WSW 3.9 mph 3.9 mph 50 % 0.0 in
19:45 7.6 °F -2.2 °F 1015.8 in WSW 5.6 mph 5.6 mph 50 % 0.0 in
19:46 7.6 °F -2.2 °F 1015.8 in SW 3.9 mph 3.9 mph 50 % 0.0 in
19:52 7.3 °F -2.4 °F 1015.8 in WSW 3.9 mph 3.9 mph 50 % 0.0 in
19:58 7.2 °F -2.3 °F 1015.8 in West 1.9 mph 1.9 mph 51 % 0.0 in
20:02 7.1 °F -2.4 °F 1015.8 in WSW 3.7 mph 3.7 mph 51 % 0.0 in
20:07 7.1 °F -2.4 °F 1015.8 in SSW 5.8 mph 5.8 mph 51 % 0.0 in
20:12 7.2 °F -2.3 °F 1015.8 in WNW 5.6 mph 5.6 mph 51 % 0.0 in
20:17 7.3 °F -2.2 °F 1015.8 in West 4.2 mph 4.2 mph 51 % 0.0 in
20:22 7.4 °F -2.1 °F 1016.8 in WSW 7.4 mph 7.4 mph 51 % 0.0 in
Meteo Sesrovires
Elogis d' Weather Underground - 2 mb

Guio original per  Jim McMurry - jmcmurry@mwt.net Adaptat per a la plantilla per  Wim van der Kuil - Leuven-Template.eu

Trobareu la nostra informacio del temps tambe a:

Weather Underground

AWEKAS